Regional Weather Roundup
Issued by NWS Sioux Falls, SD

Home | Current Version | Previous Version | Graphics & Text | Print | Product List | Glossary Off
Versions: 1 2 3 4 5 6 7 8 9 10 11 12 13 14 15 16 17 18 19 20 21 22 23 24 25 26 27 28 29 30 31 32 33 34 35 36 37 38 39 40 41 42 43 44 45 46 47 48 49 50

145
ASUS43 KFSD 302302
RWRFSD

WEATHER ROUNDUP FOR SE SOUTH DAKOTA/SW MINNESOTA/NW IOWA
NATIONAL WEATHER SERVICE SIOUX FALLS SD
600 PM CDT SUN APR 30 2017

NOTE: "FAIR" INDICATES FEW OR NO CLOUDS BELOW 12,000 FEET WITH NO
SIGNIFICANT WEATHER AND OR OBSTRUCTIONS TO VISIBILITY.


SDZ038>040-050-052>070-010000-
SOUTHEAST SOUTH DAKOTA

CITY           SKY/WX    TMP DP  RH WIND       PRES   REMARKS
BROOKINGS      RAIN      40  37  89 NE20G28   29.75R
CHAMBERLAIN    CLOUDY    52  23  31 N10       29.79F
HURON          CLOUDY    50  26  39 NE13G22   29.80S
MADISON        LGT RAIN  39  39 100 NE20G28   29.74R
MITCHELL       RAIN      40  38  93 N14       29.78F FOG
SIOUX FALLS    RAIN      39  39 100 NE21G29   29.71S FOG
WINNER         FAIR      51  24  34 NE13      29.79F
YANKTON        CLOUDY    37  34  87 NE15      29.74R
$$

MNZ071-072-080-081-089-090-097-098-010000-
SOUTHWEST MINNESOTA

CITY           SKY/WX    TMP DP  RH WIND       PRES   REMARKS
FAIRMONT       LGT RAIN  42  38  85 NE21      29.67F
JACKSON        LGT RAIN  37  37 100 NE25G32   29.66F
LUVERNE        LGT RAIN  37  34  87 NE21      29.68S
MARSHALL       LGT RAIN  41  38  89 E20       29.76F
MONTEVIDEO     LGT RAIN  43  39  87 E17G23    29.79F
PIPESTONE      LGT RAIN  39  34  81 E18G28    29.68F
REDWOOD FALLS  CLOUDY    44  33  65 NE12G28   29.76F
TRACY          DRIZZLE   40  38  93 NE18      29.75F
WINDOM         LGT RAIN  39  37  93 NE20G29   29.69F
WORTHINGTON    RAIN      38  37  97 NE30      29.66F FOG
$$

IAZ001>003-012>014-020>022-031-032-NEZ013-014-SDZ071-010000-
NORTHWEST IOWA

CITY           SKY/WX    TMP DP  RH WIND       PRES   REMARKS
CHEROKEE       LGT RAIN  40  40  99 E7G20     29.65R
DENISON        LGT RAIN  41  41 100 N7        29.63F
ESTHERVILLE    LGT RAIN  40  39  97 NE25G35   29.63F FOG
ORANGE CITY    HVY RAIN  39  39 100 NE9G21    29.65R
SHELDON        HVY RAIN  39  37  93 NE23G31   29.62S
SIOUX CITY     CLOUDY   N/A N/A N/A N6        29.68F FOG
SPENCER        LGT RAIN  41  38  89 NE28G37   29.61F FOG
STORM LAKE     RAIN      39  39 100 NE23G32   29.58R
$$

ABBREVIATIONS USED IN REMARKS
   TC - TEMPERATURE IN CELSIUS
  WCI - WIND CHILL INDEX
   HX - HEAT INDEX
  VSB - VISIBILITY





USA.gov is the U.S. government's official web portal to all federal, state and local government web resources and services.